[[{"header":{"parameterUnit":"m.s-1","parameterCategory":1,"la1":30.2991,"la2":30.254,"lo1":-89.0895,"lo2":-89.0444,"dy":0.0017,"dx":0.0017,"nx":28,"ny":28,"refTime":"2023-07-26T09:00:00:Z","depth":0,"parameterNumber":2,"parameterNumberName":"U-component_of_WINDS"},"data":[0,0,0,0,0,0,0,0,0,0,0,0,0,0,0,0,0,0,0,0,0,0,0,0,0,0,0,0,0,0,0,0,0,0,0,0,0,0,0,0,0,0,0,0,0,0,0,0,0,0,0,0,0,0,0,0,0,0,1.0573,1.0573,0,1.056,1.056,1.056,1.0562,1.0562,1.0562,1.0562,1.0548,1.0547,1.0547,0,0,0,0,0,0,0,0,0,0,0,0,0,1.0597,1.0597,1.0573,1.0573,1.0573,1.056,1.056,1.056,1.0561,1.0562,1.0562,1.0562,1.0548,1.0547,1.0547,0,0,0,0,0,0,0,0,0,0,0,0,0,1.0586,1.0597,1.0573,1.0572,1.0572,1.056,1.056,1.056,1.0561,1.0562,1.0562,1.0562,1.0548,1.0547,1.0547,1.0535,0,0,1.0544,1.0544,0,0,0,0,0,0,0,0,1.0587,1.0585,1.0572,1.0572,1.0572,1.0563,1.0564,1.0552,1.0561,1.0565,1.0562,1.0562,1.0552,1.0551,1.0548,1.0535,1.0534,1.0544,1.0543,1.0543,1.0543,0,0,0,0,0,0,0,1.0587,1.0586,1.0568,1.0572,1.0572,1.0572,1.0571,1.0561,1.0557,1.0565,1.0565,1.0564,1.0552,1.0549,1.0548,1.0534,1.0544,1.0543,1.0543,1.0542,1.0511,1.0511,0,0,0,0,0,0,1.0589,1.0586,1.0568,1.0568,1.058,1.0571,1.057,1.0565,1.0557,1.0556,1.0563,1.0564,1.055,1.0549,1.0547,1.0534,1.0543,1.0542,1.0542,1.0512,1.0511,1.0511,0,0,0,0,0,0,1.0589,1.0587,1.0569,1.0577,1.0575,1.057,1.0565,1.0565,1.0562,1.0556,1.0555,1.0561,1.0551,1.0549,1.0539,1.0534,1.0542,1.0541,1.0512,1.0512,1.0511,1.0508,0,0,0,0,0,0,1.059,1.0587,1.0583,1.0577,1.0574,1.056,1.0565,1.0564,1.056,1.0561,1.0554,1.0553,1.0551,1.054,1.0538,1.0533,1.054,1.0512,1.0512,1.0511,1.0508,1.0507,1.0506,0,0,0,0,0,1.0591,1.0582,1.0583,1.058,1.0569,1.056,1.0558,1.0557,1.056,1.0556,1.0552,1.0553,1.0535,1.0539,1.0537,1.0531,1.0513,1.0512,1.0511,1.0509,1.0507,1.0506,0,0,0,0,0,0,1.0586,1.0581,1.0582,1.0571,1.0566,1.056,1.0555,1.0555,1.0549,1.055,1.0547,1.0546,1.0536,1.0533,1.0537,1.052,1.0524,1.0523,1.0523,1.0522,1.0521,1.0522,1.054,0,0,0,0,0,1.0584,1.0578,1.0573,1.0564,1.0562,1.0559,1.0555,1.0554,1.0549,1.0547,1.0543,1.0537,1.053,1.0526,1.0519,1.0508,1.0507,1.0503,1.0502,1.0501,1.05,1.0495,1.0493,1.0509,1.0509,1.0509,0,0,1.0579,1.0576,1.0572,1.0563,1.0559,1.0553,1.0557,1.0549,1.0545,1.0545,1.0536,1.0533,1.0527,1.0516,1.0512,1.0513,1.0496,1.0501,1.05,1.0499,1.0494,1.0493,1.0491,1.0508,1.0508,1.0508,0,0,1.0568,1.0564,1.0557,1.0553,1.0548,1.0546,1.0544,1.0539,1.0537,1.0528,1.0528,1.0523,1.0511,1.0507,1.0503,1.0491,1.0492,1.0489,1.0484,1.0479,1.0477,1.0476,1.0473,1.0471,1.0488,1.0488,1.0488,0,1.0562,1.0553,1.0552,1.0545,1.0542,1.0543,1.0535,1.0532,1.0524,1.0522,1.0524,1.051,1.0506,1.0495,1.0492,1.0489,1.0487,1.049,1.0478,1.0477,1.0476,1.0472,1.0471,1.0488,1.0488,1.0488,1.0488,0,1.0547,1.0541,1.0535,1.0529,1.0525,1.0517,1.0515,1.0511,1.0511,1.0509,1.05,1.0496,1.0489,1.0486,1.0485,1.0475,1.0477,1.0478,1.0482,1.0474,1.0471,1.0469,1.0487,1.0488,1.0488,1.0488,0,0,1.0531,1.0526,1.0524,1.0521,1.0516,1.0511,1.0504,1.0498,1.0495,1.049,1.0484,1.0475,1.0477,1.0473,1.0472,1.0467,1.0459,1.0469,1.0469,1.0468,1.0448,1.0447,1.0445,1.0459,1.0459,1.0459,1.0449,0,1.0519,1.0507,1.0507,1.0496,1.0491,1.0492,1.0486,1.0483,1.0481,1.0476,1.0474,1.0467,1.047,1.0468,1.0463,1.0461,1.0455,1.0462,1.0454,1.0454,1.0456,1.0443,1.0442,1.0432,1.0447,1.0447,1.0447,0,1.0503,1.0499,1.0488,1.0485,1.0482,1.0477,1.0472,1.0467,1.0463,1.0462,1.0458,1.0458,1.0451,1.0456,1.0446,1.0451,1.0448,1.0446,1.0446,1.0445,1.045,1.0442,1.0429,1.0428,1.0445,1.0445,1.0445,0,1.0494,1.0485,1.0477,1.0475,1.0471,1.0467,1.0465,1.0462,1.0458,1.0454,1.0452,1.0446,1.0443,1.0439,1.0438,1.0441,1.0429,1.0433,1.0428,1.0428,1.0425,1.0425,1.0411,1.0423,1.0423,1.0423,1.0423,0,1.048,1.0473,1.0473,1.0468,1.0461,1.0461,1.0454,1.0452,1.0449,1.0444,1.0445,1.044,1.0439,1.0434,1.0433,1.0426,1.0424,1.0423,1.0423,1.0423,1.0423,1.0421,1.0422,1.0422,1.0423,1.0423,1.0423,0,1.0468,1.0467,1.0459,1.0457,1.0456,1.045,1.0448,1.0444,1.0443,1.0436,1.0435,1.0433,1.0427,1.0426,1.0419,1.0418,1.041,1.041,1.0411,1.0411,1.0407,1.0407,1.0391,1.0389,1.0402,1.0402,1.0402,0,1.0459,1.0454,1.0451,1.0449,1.0447,1.0442,1.0439,1.0439,1.0436,1.0432,1.0428,1.0422,1.0418,1.0409,1.0407,1.0402,1.0402,1.0397,1.0402,1.0402,1.0403,1.0403,1.0403,1.0396,1.0396,1.0396,1.0396,0,1.0445,1.0445,1.0441,1.0437,1.0434,1.043,1.0427,1.0425,1.0424,1.0421,1.0415,1.0412,1.0406,1.0401,1.0396,1.0394,1.0395,1.0395,1.0393,1.0393,1.0394,1.0394,1.0409,1.0395,1.0395,1.0395,1.0395,1.0395,1.0434,1.043,1.0428,1.0423,1.0421,1.0419,1.0415,1.0414,1.0409,1.0405,1.0405,1.0399,1.0396,1.039,1.0388,1.0383,1.0385,1.0383,1.0382,1.0382,1.0382,1.0395,1.0382,1.0382,1.0382,1.0383,1.0383,0,1.042,1.0419,1.0415,1.0411,1.0407,1.041,1.0407,1.0404,1.0399,1.0396,1.0392,1.0387,1.0382,1.038,1.0376,1.0373,1.0373,1.0371,1.0372,1.0371,1.038,1.0382,1.0371,1.0371,1.0371,1.0371,1.0371,1.0371,1.0412,1.0405,1.0406,1.0398,1.0397,1.0392,1.039,1.0388,1.0386,1.038,1.0377,1.0376,1.0373,1.0369,1.0365,1.0364,1.0363,1.0361,1.0361,1.0369,1.037,1.0371,1.0373,1.0361,1.0361,1.0352,1.0352,1.0352]},{"header":{"parameterUnit":"m.s-1","parameterCategory":1,"la1":30.2991,"la2":30.254,"lo1":-89.0895,"lo2":-89.0444,"dy":0.0017,"dx":0.0017,"nx":28,"ny":28,"refTime":"2023-07-26T09:00:00:Z","depth":0,"parameterNumber":3,"parameterNumberName":"V-component_of_WINDS"},"data":[0,0,0,0,0,0,0,0,0,0,0,0,0,0,0,0,0,0,0,0,0,0,0,0,0,0,0,0,0,0,0,0,0,0,0,0,0,0,0,0,0,0,0,0,0,0,0,0,0,0,0,0,0,0,0,0,0,0,-0.7426,-0.7426,0,-0.7468,-0.7468,-0.7469,-0.7468,-0.7467,-0.7467,-0.7466,-0.7507,-0.7509,-0.751,0,0,0,0,0,0,0,0,0,0,0,0,0,-0.7344,-0.7345,-0.7426,-0.7426,-0.7427,-0.7468,-0.7468,-0.7469,-0.7468,-0.7467,-0.7466,-0.7466,-0.7507,-0.7508,-0.751,0,0,0,0,0,0,0,0,0,0,0,0,0,-0.7382,-0.7346,-0.7425,-0.7431,-0.7432,-0.7468,-0.7468,-0.7469,-0.7468,-0.7467,-0.7466,-0.7465,-0.7506,-0.7508,-0.7511,-0.7543,0,0,-0.7518,-0.7519,0,0,0,0,0,0,0,0,-0.738,-0.7385,-0.743,-0.7431,-0.7432,-0.7462,-0.7454,-0.7494,-0.7468,-0.7454,-0.7466,-0.7465,-0.7492,-0.7496,-0.7506,-0.7545,-0.7546,-0.7518,-0.752,-0.7521,-0.7522,0,0,0,0,0,0,0,-0.7377,-0.7383,-0.7442,-0.743,-0.7432,-0.7431,-0.7436,-0.7462,-0.7478,-0.7455,-0.7455,-0.746,-0.7493,-0.7503,-0.7507,-0.7547,-0.7518,-0.752,-0.7522,-0.7523,-0.7617,-0.7617,0,0,0,0,0,0,-0.7373,-0.7381,-0.7441,-0.7443,-0.7403,-0.7433,-0.7438,-0.7453,-0.7477,-0.748,-0.7461,-0.746,-0.75,-0.7504,-0.7508,-0.7549,-0.7521,-0.7523,-0.7525,-0.7615,-0.7617,-0.7618,0,0,0,0,0,0,-0.7371,-0.7379,-0.7439,-0.7412,-0.742,-0.7436,-0.7452,-0.7454,-0.7465,-0.7482,-0.7484,-0.7469,-0.7499,-0.7505,-0.7535,-0.755,-0.7524,-0.7526,-0.7614,-0.7616,-0.7617,-0.763,0,0,0,0,0,0,-0.7369,-0.7378,-0.739,-0.7412,-0.7421,-0.7465,-0.7453,-0.7456,-0.7469,-0.7468,-0.749,-0.7492,-0.7499,-0.7531,-0.7537,-0.7553,-0.7528,-0.7613,-0.7615,-0.7617,-0.7628,-0.7631,-0.7634,0,0,0,0,0,-0.7366,-0.7391,-0.7391,-0.7398,-0.7437,-0.7466,-0.7471,-0.7479,-0.747,-0.7483,-0.7494,-0.7492,-0.7547,-0.7534,-0.7541,-0.7558,-0.7612,-0.7614,-0.7617,-0.7626,-0.7631,-0.7634,0,0,0,0,0,0,-0.7369,-0.7394,-0.7394,-0.7427,-0.7445,-0.7466,-0.7482,-0.7483,-0.7502,-0.7501,-0.7508,-0.7513,-0.7544,-0.7554,-0.7538,-0.7591,-0.7579,-0.7582,-0.7584,-0.7588,-0.7591,-0.7588,-0.753,0,0,0,0,0,-0.7374,-0.7396,-0.7416,-0.7443,-0.7452,-0.7466,-0.7479,-0.7483,-0.7501,-0.7508,-0.7522,-0.7539,-0.7561,-0.7575,-0.7595,-0.7629,-0.7634,-0.7644,-0.7647,-0.765,-0.7653,-0.7674,-0.7679,-0.7625,-0.7625,-0.7625,0,0,-0.7384,-0.74,-0.7413,-0.7445,-0.7459,-0.7481,-0.7472,-0.7496,-0.7513,-0.7512,-0.7542,-0.7552,-0.7572,-0.7605,-0.762,-0.7614,-0.7669,-0.7653,-0.7655,-0.7657,-0.7677,-0.7682,-0.7686,-0.7627,-0.7627,-0.7626,0,0,-0.7413,-0.7427,-0.7452,-0.7467,-0.7489,-0.7498,-0.7504,-0.7526,-0.7534,-0.7564,-0.7564,-0.7584,-0.7621,-0.7636,-0.7648,-0.7685,-0.7684,-0.7691,-0.7708,-0.7728,-0.7732,-0.7736,-0.7751,-0.7756,-0.7694,-0.7694,-0.7695,0,-0.7422,-0.7457,-0.7465,-0.749,-0.7504,-0.7506,-0.7531,-0.7545,-0.7572,-0.7582,-0.7575,-0.7623,-0.7636,-0.7673,-0.7683,-0.7692,-0.77,-0.7689,-0.7731,-0.7735,-0.7739,-0.7753,-0.7758,-0.7695,-0.7695,-0.7695,-0.7695,0,-0.7468,-0.7492,-0.7509,-0.7537,-0.7553,-0.7578,-0.7591,-0.7606,-0.7609,-0.7619,-0.7651,-0.7667,-0.7692,-0.7701,-0.7704,-0.7739,-0.7735,-0.7729,-0.7717,-0.7745,-0.7758,-0.7763,-0.7697,-0.7696,-0.7696,-0.7696,0,0,-0.7499,-0.7533,-0.754,-0.7553,-0.7578,-0.7597,-0.7623,-0.7648,-0.7662,-0.7681,-0.7703,-0.7735,-0.7731,-0.7745,-0.7749,-0.7766,-0.7797,-0.7759,-0.776,-0.7767,-0.7838,-0.7843,-0.7849,-0.7796,-0.7797,-0.7798,-0.7837,0,-0.7533,-0.7579,-0.7588,-0.7628,-0.7652,-0.7654,-0.7676,-0.7694,-0.7704,-0.7725,-0.7736,-0.7759,-0.7751,-0.776,-0.7777,-0.7789,-0.7811,-0.7787,-0.7817,-0.7818,-0.7813,-0.7856,-0.7861,-0.7897,-0.7842,-0.7843,-0.7844,0,-0.7577,-0.7599,-0.7642,-0.7667,-0.7677,-0.7697,-0.7722,-0.7741,-0.7762,-0.7769,-0.7785,-0.7788,-0.7815,-0.7802,-0.7839,-0.7822,-0.7835,-0.7843,-0.7845,-0.7849,-0.7833,-0.7862,-0.7908,-0.7914,-0.7852,-0.7851,-0.7851,0,-0.7598,-0.7638,-0.767,-0.7681,-0.771,-0.7724,-0.7736,-0.7756,-0.7772,-0.7793,-0.7804,-0.7827,-0.7841,-0.7859,-0.7869,-0.7858,-0.7907,-0.7893,-0.7913,-0.7913,-0.7924,-0.7923,-0.7974,-0.793,-0.793,-0.793,-0.793,0,-0.7635,-0.7662,-0.768,-0.77,-0.773,-0.774,-0.7769,-0.7781,-0.78,-0.7822,-0.7824,-0.7845,-0.7856,-0.7878,-0.7885,-0.7917,-0.7922,-0.7928,-0.793,-0.7929,-0.7928,-0.7938,-0.7936,-0.7932,-0.7931,-0.7931,-0.7931,0,-0.7664,-0.7677,-0.7712,-0.7736,-0.7743,-0.7765,-0.7786,-0.7805,-0.7815,-0.7843,-0.785,-0.7867,-0.7894,-0.7905,-0.7937,-0.7942,-0.7978,-0.7977,-0.7972,-0.7973,-0.7992,-0.7991,-0.8052,-0.8061,-0.8011,-0.8011,-0.8011,0,-0.7687,-0.7707,-0.7735,-0.7751,-0.7764,-0.7788,-0.7805,-0.7816,-0.7832,-0.7859,-0.7875,-0.7902,-0.7924,-0.7966,-0.7981,-0.8006,-0.8006,-0.8026,-0.801,-0.8009,-0.8008,-0.8008,-0.801,-0.8029,-0.803,-0.803,-0.8031,0,-0.7727,-0.7733,-0.7756,-0.7783,-0.7803,-0.7824,-0.7844,-0.7857,-0.7871,-0.789,-0.7918,-0.7935,-0.7969,-0.7996,-0.8022,-0.8034,-0.8035,-0.8036,-0.8042,-0.8041,-0.8037,-0.8041,-0.7981,-0.8034,-0.8034,-0.8034,-0.8033,-0.8033,-0.7754,-0.7773,-0.7797,-0.7823,-0.784,-0.786,-0.788,-0.7894,-0.7918,-0.7947,-0.7952,-0.7982,-0.8003,-0.8039,-0.8053,-0.8076,-0.8071,-0.808,-0.8082,-0.8084,-0.8087,-0.8033,-0.8081,-0.8081,-0.8081,-0.8081,-0.808,0,-0.7795,-0.7811,-0.7835,-0.7865,-0.7887,-0.7886,-0.791,-0.7928,-0.7954,-0.7975,-0.7997,-0.803,-0.8057,-0.8074,-0.8101,-0.8117,-0.8118,-0.8123,-0.8123,-0.8126,-0.8089,-0.8081,-0.8122,-0.8122,-0.8122,-0.8122,-0.8122,-0.8122,-0.7819,-0.7853,-0.7862,-0.7904,-0.7919,-0.795,-0.7964,-0.7982,-0.7999,-0.8036,-0.8058,-0.807,-0.8089,-0.8118,-0.8143,-0.8147,-0.8157,-0.8164,-0.8168,-0.8133,-0.8128,-0.8124,-0.8118,-0.8165,-0.8165,-0.8204,-0.8204,-0.8204]}]]